STARLINK-11567, 62909

Orbit data source: Space-Track

STARLINK-11567, 62909 is a payload satellite owned by SpaceX/Seattle (US) in LEO that was launched on Sat, 08 Feb 2025 UTC via an FALCON 9 launch vehicle from the Air Force Eastern Test Range (AFETR). Payload-class satellites include a variety of spacecraft equipped with specific instruments for various scientific and technological missions. These include communications satellites like Starlink; space stations such as the ISS; scientific satellites like the Hubble; Earth observation satellites from companies like Planet Labs, Umbra, and HawkEye 360; GPS; miniature CubeSats for education and research; and military/defense satellites.

Loading next visibility...
Identifier
62909, 2025-027C
Orbit
LEO
Last TLE update
1 day ago
Origin
Manufacturer
SpaceX/Seattle
Mission
Operational Commercial Communications
Bus & Motor
STARLINK V2M, Unknown motor
Mass
730 kg wet, ~700 kg dry
Launch date (UTC)
2025-02-08 (5 months ago)
Launch vehicle
FALCON 9
Launch site
Air Force Eastern Test Range (AFETR)
Object type
Payload
Rocket body
Debris
Shape & HBR
Box + 2 Pan, 29 m
Radar Cross Section
36.964 m², Large (>1 m²)

Expand to show TLE details & history

TLE from 1 day ago
0 STARLINK-11567
1 62909U 25027C   25181.10728105  .00162251  00000-0  12421-2 0  9992
2 62909  42.9981  70.4949 0002307 275.6634  84.3971 15.70864279 23421
Epoch: 2025-06-30T02:34Z
TLE epoch observation values (Epoch: 2025-06-30T02:34:29.082Z)
Latitude
Longitude
113.45189°
Altitude
356.045 km
Speed
7.697 km/s
True Right ascension
04h 41m 58s
True Declination
0° 00' 00"
Sunlit
Object was in daylight at epoch
Visualization orbit readout
Latitude
-26.48779°
Longitude
-40.43471°
Altitude
361.468 km
Speed
7.693 km/s
Apparent Right ascension
21h 37m 32s
Apparent Declination
-49° 21' 08"
Sunlit
Object is in full shadow
Visualization observer readout
Local Sidereal Time
14:00:54
Azimuth
124.656° SE
Elevation
-43.733°
Doppler factor
1
Orbital elements
Apogee altitude
359.962 km
Perigee altitude
356.853 km
Semi-major axis
6,736.545 km
Eccentricity
0.00023
Inclination
42.9981°
RAAN
70.4949°
Arg. of periapsis
275.6634°
True anomaly
Unknown
Mean anomaly
84.3971°
Eccentric anomaly
Unknown
Mean motion
3.92543 °/min
Orbital period
91.71 mins
BSTAR
0.0012421
Loading maneuver chart data...
Loading SW <> Apogee altitude chart data...
Loading historical data...
Loading historical data...
Loading historical data...
Loading historical data...
Loading historical data...
Loading historical data...
Loading historical data...

STARLINK-11567 Visibility forecast

Observer location: undefined°, undefined°

Span
Click to sort rows by Start time (UTC) header in descending order
Start Az.
Max El. time (UTC)
Max El. Az.
Max El.
End time (UTC)
End Az.
5 mins2025-07-01 19:59:47.055Z233.874° WSW2025-07-01 20:02:47.055Z124.34° SE37.436°2025-07-01 20:04:47.055Z79.885° E
4 mins2025-07-01 21:36:47.055Z284.685° WNW2025-07-01 21:38:47.055Z10.962° NNE35.769°2025-07-01 21:40:47.055Z65.504° ENE
|